Weather History for K9MN - October, 2013

Change the Weather History Date:

Tuesday, October 1, 2013

  Actual Average (KRST) Record (KRST)
Temperature  
Mean Temperature 64 °F 54 °F  
Max Temperature 74 °F 65 °F 88 °F (1976)
Min Temperature 55 °F 44 °F 21 °F (1920)
Degree Days  
Heating Degree Days 0 11  
Month to date heating degree days 11  
Since 1 July heating degree days 226  
Cooling Degree Days 0 1  
Month to date cooling degree days 1  
Year to date cooling degree days 580  
Growing Degree Days 14 (Base 50)    
Moisture  
Dew Point 41 °F    
Average Humidity 44    
Maximum Humidity 65    
Minimum Humidity 18    
Precipitation  
Precipitation 0.00 in 0.10 in 1.45 in (2009)
Month to date precipitation 0.10  
Year to date precipitation 27.74  
Snow  
Snow 0.00 in 0.00 in 0.50 in (1999)
Month to date snowfall 0.0  
Since 1 July snowfall 0.0  
Snow Depth -    
Sea Level Pressure  
Sea Level Pressure 29.84 in    
Wind  
Wind Speed 12 mph (WSW)    
Max Wind Speed 21 mph    
Max Gust Speed 26 mph    
Visibility 10 miles    
Events      
T = Trace of Precipitation, MM = Missing Value Source: NWS Daily Summary

Daily Weather History Graph

Daily Weather History Graph

Search for Another Location

Airport or City:

Trip Planner

Search our weather history database for the weather conditions in past years. The results will help you decide how hot, cold, wet, or windy it might be!

Date:

Astronomy

Oct. 01, 2013 Rise Set
Actual Time 7:07 AM CDT 6:50 PM CDT
Civil Twilight 6:39 AM CDT 7:19 PM CDT
Nautical Twilight 6:05 AM CDT 7:52 PM CDT
Astronomical Twilight 5:31 AM CDT 8:26 PM CDT
Moon 3:36 AM CDT (10/1) 4:59 PM CDT (10/1)
Length of Visible Light 12h 39m
Length of Day
11h 42m
Waning Crescent, 12% of the Moon is Illuminated
Oct 1
Waning Crescent
Oct 4
New
Oct 11
First Quarter
Oct 18
Full
Oct 26
Last Quarter

Hourly Weather History & Observations

Time (CDT) Temp. Dew Point Humidity Pressure Visibility Wind Dir Wind Speed Gust Speed Precip Events Conditions
12:14 AM 64.4 °F 45.7 °F 51% 29.73 in 10.0 mi South 12.7 mph 19.6 mph N/A   Clear
12:33 AM 64.6 °F 45.9 °F 51% 29.73 in 10.0 mi South 12.7 mph 19.6 mph N/A   Clear
12:53 AM 64.9 °F 46.2 °F 51% 29.73 in 10.0 mi South 11.5 mph 18.4 mph N/A   Clear
1:14 AM 64.9 °F 46.4 °F 51% 29.72 in 10.0 mi South 11.5 mph 23.0 mph N/A   Clear
1:33 AM 64.4 °F 46.4 °F 52% 29.72 in 10.0 mi South 11.5 mph 21.9 mph N/A   Clear
1:53 AM 64.0 °F 46.6 °F 53% 29.72 in 10.0 mi South 11.5 mph 19.6 mph N/A   Clear
2:14 AM 64.0 °F 46.6 °F 53% 29.72 in 10.0 mi South 12.7 mph 25.3 mph N/A   Clear
2:33 AM 63.5 °F 46.8 °F 54% 29.71 in 10.0 mi South 13.8 mph 24.2 mph N/A   Clear
2:53 AM 63.0 °F 47.3 °F 57% 29.71 in 10.0 mi South 15.0 mph 20.7 mph N/A   Clear
3:14 AM 62.4 °F 47.5 °F 58% 29.71 in 10.0 mi South 15.0 mph 21.9 mph N/A   Clear
3:33 AM 62.2 °F 47.8 °F 59% 29.71 in 10.0 mi South 16.1 mph 23.0 mph N/A   Clear
3:53 AM 62.6 °F 47.8 °F 58% 29.71 in 10.0 mi SSW 17.3 mph 21.9 mph N/A   Clear
4:14 AM 62.8 °F 47.8 °F 58% 29.71 in 10.0 mi SSW 16.1 mph 24.2 mph N/A   Clear
4:33 AM 62.6 °F 48.2 °F 59% 29.70 in 10.0 mi SSW 20.7 mph 26.5 mph N/A   Clear
4:53 AM 61.9 °F 48.2 °F 61% 29.70 in 10.0 mi SSW 17.3 mph 21.9 mph N/A   Clear
5:14 AM 62.2 °F 48.4 °F 60% 29.71 in 10.0 mi SSW 16.1 mph 25.3 mph N/A   Clear
5:33 AM 62.2 °F 48.6 °F 61% 29.71 in 10.0 mi SSW 18.4 mph 25.3 mph N/A   Clear
5:53 AM 61.9 °F 48.6 °F 62% 29.72 in 10.0 mi SSW 18.4 mph 25.3 mph N/A   Clear
6:14 AM 61.7 °F 48.7 °F 62% 29.72 in 10.0 mi SSW 16.1 mph 25.3 mph N/A   Clear
6:33 AM 61.2 °F 48.7 °F 64% 29.73 in 10.0 mi SW 13.8 mph 25.3 mph N/A   Clear
6:53 AM 60.8 °F 48.6 °F 64% 29.73 in 10.0 mi SSW 11.5 mph 19.6 mph N/A   Clear
7:14 AM 60.4 °F 48.6 °F 65% 29.74 in 10.0 mi SW 13.8 mph 19.6 mph N/A   Clear
7:33 AM 60.4 °F 48.6 °F 65% 29.75 in 10.0 mi SSW 11.5 mph 20.7 mph N/A   Clear
7:54 AM 60.8 °F 48.7 °F 64% 29.76 in 10.0 mi WSW 6.9 mph - N/A   Clear
8:14 AM 60.8 °F 49.1 °F 65% 29.77 in 10.0 mi WSW 6.9 mph - N/A   Clear
8:33 AM 61.0 °F 49.1 °F 65% 29.78 in 10.0 mi WSW 12.7 mph 18.4 mph N/A   Clear
8:54 AM 61.3 °F 49.3 °F 65% 29.79 in 10.0 mi WSW 12.7 mph 17.3 mph N/A   Clear
9:13 AM 63.0 °F 49.3 °F 61% 29.80 in 10.0 mi West 12.7 mph 17.3 mph N/A   Clear
9:33 AM 63.9 °F 49.5 °F 59% 29.82 in 10.0 mi West 6.9 mph 20.7 mph N/A   Clear
9:54 AM 64.0 °F 49.3 °F 59% 29.83 in 10.0 mi West 13.8 mph 18.4 mph N/A   Clear
10:13 AM 64.4 °F 49.1 °F 58% 29.83 in 10.0 mi West 13.8 mph - N/A   Clear
10:33 AM 64.6 °F 48.9 °F 57% 29.84 in 10.0 mi West 11.5 mph 16.1 mph N/A   Clear
10:54 AM 65.3 °F 48.4 °F 54% 29.85 in 10.0 mi West 9.2 mph - N/A   Clear
11:13 AM 66.6 °F 47.1 °F 50% 29.85 in 10.0 mi WNW 10.4 mph - N/A   Clear
11:33 AM 67.5 °F 44.8 °F 44% 29.86 in 10.0 mi WNW 13.8 mph 19.6 mph N/A   Clear
11:54 AM 68.5 °F 44.4 °F 42% 29.87 in 10.0 mi WNW 13.8 mph 19.6 mph N/A   Clear
12:13 PM 68.4 °F 44.2 °F 42% 29.87 in 10.0 mi West 15.0 mph - N/A   Clear
12:33 PM 70.0 °F 39.7 °F 33% 29.88 in 10.0 mi WNW 12.7 mph 20.7 mph N/A   Clear
12:54 PM 70.5 °F 40.8 °F 34% 29.88 in 10.0 mi WNW 13.8 mph 18.4 mph N/A   Clear
1:13 PM 71.1 °F 41.2 °F 34% 29.88 in 10.0 mi West 13.8 mph 19.6 mph N/A   Clear
1:33 PM 71.4 °F 37.6 °F 29% 29.88 in 10.0 mi West 16.1 mph 19.6 mph N/A   Clear
1:54 PM 71.8 °F 35.1 °F 26% 29.89 in 10.0 mi West 13.8 mph 24.2 mph N/A   Clear
2:13 PM 71.8 °F 34.9 °F 26% 29.89 in 10.0 mi WNW 12.7 mph 18.4 mph N/A   Clear
2:33 PM 71.6 °F 33.4 °F 25% 29.90 in 10.0 mi NW 11.5 mph 16.1 mph N/A   Clear
2:54 PM 72.3 °F 32.9 °F 23% 29.90 in 10.0 mi West 9.2 mph 19.6 mph N/A   Clear
3:13 PM 73.4 °F 34.0 °F 24% 29.90 in 10.0 mi WSW 9.2 mph 16.1 mph N/A   Clear
3:33 PM 73.4 °F 32.5 °F 22% 29.90 in 10.0 mi West 12.7 mph 18.4 mph N/A   Clear
3:54 PM 73.4 °F 30.6 °F 21% 29.90 in 10.0 mi WNW 10.4 mph 19.6 mph N/A   Clear
4:13 PM 73.8 °F 30.9 °F 21% 29.90 in 10.0 mi West 12.7 mph 19.6 mph N/A   Clear
4:33 PM 74.3 °F 28.8 °F 19% 29.91 in 10.0 mi West 12.7 mph 18.4 mph N/A   Clear
4:54 PM 74.1 °F 29.5 °F 19% 29.91 in 10.0 mi West 15.0 mph 19.6 mph N/A   Clear
5:13 PM 73.8 °F 28.0 °F 18% 29.92 in 10.0 mi West 10.4 mph - N/A   Clear
5:33 PM 73.4 °F 28.0 °F 19% 29.92 in 10.0 mi West 11.5 mph 17.3 mph N/A   Clear
5:54 PM 72.7 °F 27.7 °F 19% 29.92 in 10.0 mi West 9.2 mph 16.1 mph N/A   Clear
6:13 PM 72.0 °F 28.4 °F 20% 29.92 in 10.0 mi West 8.1 mph - N/A   Clear
6:33 PM 70.3 °F 30.2 °F 23% 29.93 in 10.0 mi West 6.9 mph - N/A   Clear
6:54 PM 69.3 °F 31.1 °F 24% 29.93 in 10.0 mi West 6.9 mph - N/A   Clear
7:13 PM 68.7 °F 30.4 °F 24% 29.93 in 7.0 mi West 9.2 mph - N/A   Clear
7:34 PM 67.8 °F 32.0 °F 26% 29.94 in 10.0 mi West 4.6 mph - N/A   Clear
7:53 PM 66.2 °F 32.0 °F 28% 29.95 in 10.0 mi West 6.9 mph - N/A   Clear
8:13 PM 65.3 °F 32.0 °F 29% 29.95 in 10.0 mi West 5.8 mph - N/A   Clear
8:34 PM 64.8 °F 31.1 °F 28% 29.96 in 10.0 mi West 5.8 mph - N/A   Clear
8:53 PM 63.7 °F 31.6 °F 30% 29.96 in 10.0 mi West 3.5 mph - N/A   Clear
9:13 PM 62.4 °F 32.5 °F 33% 29.96 in 10.0 mi West 4.6 mph - N/A   Clear
9:34 PM 60.8 °F 34.3 °F 37% 29.97 in 10.0 mi West 4.6 mph - N/A   Clear
9:53 PM 59.4 °F 35.6 °F 41% 29.98 in 10.0 mi Calm Calm - N/A   Clear
10:13 PM 59.2 °F 33.4 °F 38% 29.99 in 10.0 mi West 3.5 mph - N/A   Clear
10:34 PM 57.9 °F 35.2 °F 43% 30.00 in 10.0 mi West 3.5 mph - N/A   Clear
10:53 PM 58.1 °F 34.5 °F 41% 30.00 in 10.0 mi Calm Calm - N/A   Clear
11:13 PM 55.9 °F 38.1 °F 51% 30.01 in 10.0 mi Calm Calm - N/A   Clear
11:34 PM 55.9 °F 37.6 °F 50% 30.01 in 10.0 mi Calm Calm - N/A   Clear
11:53 PM 56.7 °F 33.3 °F 41% 30.02 in 10.0 mi Calm Calm - N/A   Clear